Weather History for Ogden Hill AFB, UT

Change the Weather History Date:

Thursday, February 14, 2013

  Actual Average Record
Temperature  
Mean Temperature 30 °F -  
Max Temperature 35 °F 37 °F 54 °F (2011)
Min Temperature 26 °F 23 °F 8 °F (2004)
Degree Days  
Heating Degree Days 34    
Moisture  
Dew Point 20 °F    
Average Humidity 66    
Maximum Humidity 75    
Minimum Humidity 51    
Precipitation  
Precipitation 0.00 in - - ()
Sea Level Pressure  
Sea Level Pressure 30.33 in    
Wind  
Wind Speed 3 mph (SSW)    
Max Wind Speed 7 mph    
Max Gust Speed -    
Visibility 10 miles    
Events      
Averages and records for this station are not official NWS values.
T = Trace of Precipitation, MM = Missing Value Source: NWS Daily Summary

Daily Weather History Graph

Daily Weather History Graph

Search for Another Location

Airport:

Trip Planner

Search our weather history database for the weather conditions in past years. The results will help you decide how hot, cold, wet, or windy it might be!

Date:

Astronomy

Feb. 14, 2013 Rise Set
Actual Time 7:23 AM MST 6:01 PM MST
Civil Twilight 6:55 AM MST 6:29 PM MST
Nautical Twilight 6:22 AM MST 7:01 PM MST
Astronomical Twilight 5:50 AM MST 7:33 PM MST
Moon 9:24 AM MST (2/14) 11:11 PM MST (2/14)
Length of Visible Light 11h 34m
Length of Day
10h 38m
Waxing Crescent, 22% of the Moon is Illuminated
Feb 14
Waxing Crescent
Feb 17
First Quarter
Feb 25
Full
Mar 4
Last Quarter
Mar 11
New

Hourly Weather History & Observations

Time (MST) Temp. Windchill Dew Point Humidity Pressure Visibility Wind Dir Wind Speed Gust Speed Precip Events Conditions
12:58 AM 29.5 °F 25.9 °F 21.4 °F 72% 30.28 in 10.0 mi South 3.5 mph - N/A   Overcast
1:48 AM 28.4 °F - 21.2 °F 74% 30.23 in 10.0 mi Calm Calm - N/A   Overcast
1:58 AM 28.4 °F - 20.5 °F 72% 30.29 in 9.0 mi Calm Calm - N/A   Mostly Cloudy
2:08 AM 28.4 °F - 21.2 °F 74% 30.24 in 10.0 mi WSW 2.3 mph - N/A   Mostly Cloudy
2:43 AM 28.4 °F - 21.2 °F 74% 30.25 in 10.0 mi NNW 2.3 mph - N/A   Overcast
2:58 AM 29.8 °F 24.9 °F 20.1 °F 67% 30.25 in 10.0 mi NW 4.6 mph - N/A   Overcast
3:11 AM 30.2 °F 25.4 °F 19.4 °F 64% 30.25 in 10.0 mi North 4.6 mph - N/A   Overcast
3:21 AM 30.2 °F 26.7 °F 21.2 °F 69% 30.25 in 10.0 mi North 3.5 mph - N/A   Overcast
3:26 AM 30.2 °F 26.7 °F 21.2 °F 69% 30.24 in 10.0 mi North 3.5 mph - N/A   Overcast
3:37 AM 30.2 °F - 19.4 °F 64% 30.24 in 10.0 mi NNE 2.3 mph - N/A   Overcast
3:58 AM 30.0 °F 26.5 °F 20.7 °F 68% 30.28 in 10.0 mi East 3.5 mph - 0.00 in   Overcast
4:13 AM 30.2 °F - 21.2 °F 69% 30.24 in 10.0 mi ESE 2.3 mph - N/A   Overcast
4:53 AM 30.2 °F - 21.2 °F 69% 30.24 in 10.0 mi SSE 2.3 mph - N/A   Overcast
4:58 AM 29.8 °F - 20.7 °F 69% 30.28 in 10.0 mi South 2.3 mph - 0.00 in   Overcast
5:09 AM 30.2 °F - 19.4 °F 64% 30.25 in 10.0 mi South 2.3 mph - N/A   Overcast
5:35 AM 30.2 °F 26.7 °F 21.2 °F 69% 30.27 in 10.0 mi SW 3.5 mph - N/A   Overcast
5:40 AM 30.2 °F 26.7 °F 21.2 °F 69% 30.27 in 10.0 mi SW 3.5 mph - N/A   Overcast
5:45 AM 30.2 °F 26.7 °F 19.4 °F 64% 30.27 in 10.0 mi SW 3.5 mph - N/A   Overcast
5:49 AM 32.0 °F 28.7 °F 19.4 °F 60% 30.27 in 10.0 mi SSW 3.5 mph - N/A   Overcast
5:58 AM 32.0 °F 27.5 °F 19.4 °F 60% 30.32 in 10.0 mi SSW 4.6 mph - 0.00 in   Overcast
6:11 AM 32.0 °F 27.5 °F 21.2 °F 64% 30.28 in 10.0 mi SSW 4.6 mph - N/A   Overcast
6:13 AM 32.0 °F 27.5 °F 21.2 °F 64% 30.28 in 10.0 mi SSW 4.6 mph - N/A   Overcast
6:28 AM 28.4 °F 23.3 °F 21.2 °F 74% 30.28 in 9.0 mi South 4.6 mph - N/A   Overcast
6:43 AM 28.4 °F 23.3 °F 21.2 °F 74% 30.28 in 10.0 mi South 4.6 mph - N/A   Mostly Cloudy
6:53 AM 28.4 °F 23.3 °F 21.2 °F 74% 30.29 in 10.0 mi SSW 4.6 mph - N/A   Mostly Cloudy
6:58 AM 27.5 °F 22.2 °F 20.5 °F 75% 30.34 in 10.0 mi SSW 4.6 mph - 0.00 in   Mostly Cloudy
7:58 AM 28.9 °F - 19.8 °F 69% 30.34 in 10.0 mi Variable 2.3 mph - N/A   Mostly Cloudy
8:58 AM 29.7 °F 24.7 °F 20.1 °F 68% 30.38 in 10.0 mi West 4.6 mph - N/A   Mostly Cloudy
9:38 AM 32.0 °F - 19.4 °F 60% 30.34 in 10.0 mi Calm Calm - N/A   Scattered Clouds
9:58 AM 32.0 °F 27.5 °F 19.6 °F 60% 30.39 in 10.0 mi WSW 4.6 mph - N/A   Scattered Clouds
10:58 AM 33.1 °F 30.0 °F 19.9 °F 59% 30.40 in 10.0 mi SW 3.5 mph - N/A   Partly Cloudy
11:58 AM 34.9 °F 30.8 °F 19.6 °F 54% 30.39 in 10.0 mi SW 4.6 mph - N/A   Clear
12:58 PM 34.9 °F 29.0 °F 19.6 °F 54% 30.38 in 10.0 mi West 6.9 mph - N/A   Clear
1:58 PM 35.8 °F 30.9 °F 19.0 °F 51% 30.39 in 10.0 mi West 5.8 mph - N/A   Clear
2:58 PM 35.4 °F 29.7 °F 20.5 °F 55% 30.39 in 10.0 mi WNW 6.9 mph - N/A   Clear
3:58 PM 35.1 °F 31.0 °F 19.9 °F 54% 30.40 in 10.0 mi West 4.6 mph - N/A   Clear
4:58 PM 33.6 °F 28.4 °F 21.0 °F 60% 30.40 in 10.0 mi WSW 5.8 mph - N/A   Clear
5:58 PM 31.5 °F 28.1 °F 19.6 °F 62% 30.41 in 10.0 mi West 3.5 mph - N/A   Clear
6:58 PM 29.5 °F 25.9 °F 18.3 °F 63% 30.45 in 10.0 mi West 3.5 mph - N/A   Clear
7:23 PM 30.2 °F - 17.6 °F 60% 30.39 in 10.0 mi Calm Calm - N/A   Mostly Cloudy
7:33 PM 28.4 °F - 19.4 °F 69% 30.39 in 10.0 mi Variable 1.2 mph - N/A   Scattered Clouds
7:58 PM 27.5 °F - 18.7 °F 69% 30.45 in 10.0 mi SE 2.3 mph - N/A   Partly Cloudy
8:13 PM 32.0 °F - 19.4 °F 60% 30.38 in 10.0 mi SSE 1.2 mph - N/A   Mostly Cloudy
8:58 PM 29.7 °F 24.7 °F 19.2 °F 65% 30.45 in 10.0 mi SE 4.6 mph - N/A   Mostly Cloudy
9:08 PM 26.6 °F 21.2 °F 17.6 °F 69% 30.39 in 10.0 mi SE 4.6 mph - N/A   Scattered Clouds
9:58 PM 27.9 °F - 18.7 °F 68% 30.45 in 10.0 mi SSW 2.3 mph - N/A   Clear
10:33 PM 26.6 °F - 19.4 °F 74% 30.40 in 10.0 mi South 2.3 mph - N/A   Mostly Cloudy
10:43 PM 28.4 °F - 19.4 °F 69% 30.40 in 10.0 mi South 2.3 mph - N/A   Scattered Clouds
10:58 PM 29.1 °F - 19.6 °F 68% 30.47 in 10.0 mi South 2.3 mph - N/A   Partly Cloudy
11:23 PM 26.6 °F 22.6 °F 19.4 °F 74% 30.41 in 10.0 mi SE 3.5 mph - N/A   Mostly Cloudy
11:58 PM 28.8 °F - 19.4 °F 68% 30.47 in 10.0 mi SE 2.3 mph - N/A   Mostly Cloudy